Location: Paddlesworth
(51.1000°N, 1.1333°E)
Time: 17:38:20
(UTC+00:00)

SJ 16-02 - Pass Details

Date: 11 May 2021
Orbit: 606 x 616 km, 75.0° (Epoch: 21 June)

Event Time Altitude Azimuth Distance (km) Brightness Sun altitude
Exits shadow 21:19:27 13° 183° (S) 1,797 3.3 -13.2°
Maximum altitude 21:23:18 55° 107° (ESE) 745 1.5 -13.5°
Drops below altitude 10° 21:27:39 10° 30° (NNE) 1,990 4.3 -13.9°
Sets 21:29:56 0° 26° (NNE) 2,899 5.2 -14.1°
